User: anonymous   Login
Location: Unspecified
(0.0000°N, 0.0000°E)
Time: 05:22:47
(UTC+02:00)
Language:

Hubble Space Telescope - Orbit

View from above orbital plane
View from above orbital plane
View from above satellite
View from above satellite

Ground track
Ground track

The orbit data is extracted from the following two-line orbital elements,

1 20580U 90037B   15107.54881944  .00003785  00000-0  23377-3 0  9999
2 20580 028.4700 193.9336 0002649 309.7460 257.8610 15.07200618170650
Epoch (UTC): 17 April 2015 13:10:18
Eccentricity: 0.0002649
inclination: 28.4700°
perigee height: 543 km
apogee height: 546 km
right ascension of ascending node: 193.9336°
argument of perigee: 309.7460°
revolutions per day: 15.07200618
mean anomaly at epoch: 257.8610°
orbit number at epoch: 17065

The dashed part of the orbit path shows where the satellite is in the earth's shadow,  

DLR